Location: Castrojimeno
(41.3966°N, 3.8473°W)
Time: 13:38:29
(UTC+00:00)

USA 234 - Pass Details

Date: 15 May 2026
Orbit: 1102 x 1106 km, 123.0° (Epoch: 4 January)

Event Time Altitude Azimuth Distance (km) Brightness Sun altitude
Rises 22:42:51 0° 53° (NE) 3,924 6.3 -26.1°
Reaches altitude 10° 22:45:34 10° 62° (ENE) 2,963 5.6 -26.3°
Enters shadow 22:49:36 31° 94° (E) 1,835 4.2 -26.6°
